Погода в Велетьме

Россия / Нижегородская область     55°20′11″N   42°25′10″E
темп.,
°C
ветер,
м/с
пор.,
м/с
влажн.,
%
обл.,
%
осадки,
мм/ч
давл.,
гПа
погр.,
м
11 мая, вт
вт1100:00+7ссв41197100 0.0 1025382
03:00+6ссв4129789 0.0 1025348
06:00+8св4119399 0.0 1025335
09:00+13св587396 0.0 1025506
12:00+18всв576252 0.0 1025755
15:00+21всв4659100 0.0 10251048
18:00+17в4980100 2.3 1026289
21:00+13ююз269892 2.6 1027141
12 мая, ср
ср1200:00+11ююз119485 0.0 102825
03:00+10с119688 0.0 102711
06:00+12ссв2696100 0.0 1026160
09:00+17вюв4107999 0.3 1025606
12:00+21в51356100 0.1 10242276
15:00+17вюв51168100 0.1 1023981
18:00+14вюв51493100 1.1 1023797
21:00+13вюв4129462 1.1 1023502
13 мая, чт
чт1300:00+12в3996100 0.0 1023260
03:00+12в2896100 0.0 1023241
06:00+13в39936 0.0 1022304
09:00+19в4965100 0.0 1021698
12:00+17вюв61268100 0.1 1019811
15:00+18юв5107679 0.8 1019957
18:00+17ююв3889100 1.8 1018560
21:00+14ююв2297100 2.0 101847
14 мая, пт
пт1400:00+13юз11970 0.0 101911
03:00+12вюв119727 0.0 101910
06:00+14всв119579 0.0 102061
09:00+18вюв2382100 0.0 1019439
12:00+22ююв356047 0.0 10191321
15:00+24ю45499 0.0 10181701
18:00+22юв37661 0.0 1017554
21:00+17вюв3129026 0.0 1016243
15 мая, сб
сб1500:00+17ююв31287100 0.0 1015287
03:00+15ююв399221 0.0 1015204
06:00+16юв4117856 0.0 1014285
09:00+21ююв51353100 0.0 1013710
12:00+24ю61242100 0.0 10131169
15:00+25ю6114849 0.0 10121344
18:00+22ююв511606 0.0 1011864
21:00+16ю228833 0.0 101121